Starlink 30229

operational
NORAD ID: 57461 Int'l Des: 2023-107 Owner: SPXS Country: US Constellation: starlink
LEOCIRCULAR

Starlink 30229について

説明を読み込み中...

リアルタイム位置

3D地球を読み込み中...

次回通過

高度履歴

Altitude vs Time

uPlot chart will show altitude changes over time

軌道要素

1 57461U 23107E 25354.14113803 .00000188 00000-0 29002-4 0 9990
2 57461 43.0056 51.5185 0001184 275.4878 84.5829 15.02534593133148
Epoch: Dec 20, 2025 • Age: 5 hours

現在のステータス

高度 561.5 km
速度 7.59 km/s
衛星直下点 36.06°N, 40.44°W
打ち上げ日 Jul 28, 2023
運用期間 2.3 years
タイプ internet

技術仕様

分類 Payload
質量 730.00 kg
乾燥質量 700.00 kg
総質量 730.00 kg
長さ 0.30 m
直径 4.10 m
スパン 29.00 m
形状 Box + pan
製造者 SPXS
バスタイプ Starlink V2M
フェーズステータス In Orbit
所有者/国 SPXS/US

大規模コンステレーション

Loading constellations...